Home   Weather   Santa Fe   Past weeks

Flag for USA Past Weather in Santa Fe, New Mexico, USA — Yesterday and Last 2 Weeks

Now
40 °F

Overcast.


Feels Like: 32 °F
Forecast: 26 / 41 °F
Wind: 14 mph from North

Location: Santa Fe County Municipal Airport

Current Time: Jan 18, 2017 at 5:30:08 pm

Latest Report: Jan 18, 2017 at 4:53 pm


Visibility: 10 mi

Pressure: 29.93 "Hg (23.02 "Hg at 2132m altitude)

Humidity: 60%

Dew Point: 27 °F

Location of Santa FeLocation

Past Weather in Santa Fe — Graph

°F

Santa Fe Temperature Yesterday

Maximum temperature yesterday: 45 °F (at 1:00 pm)
Minimum temperature yesterday: 30 °F (at 9:53 pm)
Average temperature yesterday: 37 °F

High & Low Weather Summary for the Past Weeks

 TemperatureHumidityPressure
High53 °F (Jan 10, 1:53 pm)100% (Jan 14, 10:07 pm)30.62 "Hg (Jan 14, 10:07 pm)
Low5 °F (Jan 6, 6:53 am)19% (Jan 10, 2:53 pm)29.57 "Hg (Jan 5, 4:53 pm)
Average34 °F71%30.02 "Hg
* Reported Jan 3 3:53 pm — Jan 18 3:53 pm, Santa Fe, Weather by CustomWeather, © 2017

Note: Actual official high and low records may vary slightly from our data, if they occured in-between our weather recording intervals... More about our weather records

Advertising

Santa Fe Weather History for the Previous 24 Hours

Scroll right to see more
 ConditionsComfort  
Time TempWeatherWind HumidityBarometerVisibility
3:53 pm
Wed, Jan 18
41 °FMostly cloudy.13 mph62%29.91 "Hg10 mi
2:53 pm42 °FMostly cloudy.10 mph62%29.91 "Hg10 mi
1:53 pm41 °FOvercast.5 mph65%29.93 "Hg10 mi
12:53 pm40 °FOvercast.7 mph73%29.96 "Hg10 mi
11:53 am39 °FMostly cloudy.8 mph73%30.01 "Hg10 mi
10:53 am37 °FOvercast.8 mph79%30.03 "Hg10 mi
9:53 am35 °FScattered clouds.No wind88%30.06 "Hg10 mi
8:53 am31 °FScattered clouds.3 mph92%30.07 "Hg10 mi
8:23 am29 °FIce fog.No wind96%30.08 "Hg1 mi
7:53 am28 °FIce fog.No wind100%30.08 "Hg1 mi
6:53 am28 °FIce fog.No wind96%30.07 "Hg0 mi
5:53 am28 °FIce fog.No wind96%30.08 "Hg0 mi
5:02 am30 °FIce fog.No wind96%30.09 "Hg0 mi
4:27 am30 °FIce fog.No wind92%30.09 "Hg2 mi
3:53 am28 °FPartly cloudy.3 mph96%30.05 "Hg8 mi
3:31 am30 °FPassing clouds.3 mph96%30.10 "Hg10 mi
2:53 am30 °FClear.No wind92%30.06 "Hg10 mi
1:53 am30 °FPassing clouds.3 mph89%30.06 "Hg10 mi
12:53 am31 °FPassing clouds.5 mph89%30.03 "Hg10 mi
11:53 pm
Tue, Jan 17
31 °FPassing clouds.6 mph85%30.06 "Hg10 mi
10:53 pm32 °FPassing clouds.5 mph82%30.08 "Hg10 mi
9:53 pm30 °FClear.No wind89%30.08 "Hg10 mi
8:53 pm33 °FClear.5 mph78%30.08 "Hg10 mi
7:53 pm35 °FPassing clouds.7 mph78%30.06 "Hg10 mi
6:53 pm38 °FPassing clouds.6 mph68%30.06 "Hg10 mi
5:53 pm37 °FPassing clouds.9 mph70%30.05 "Hg10 mi
Weather by CustomWeather, © 2017

See weather overviewHow to use our weather pages